Orbital elements:
2011 GP59                                                Earth MOID = 0.0010 AU
Epoch 2011 Feb. 8.0 TT = JDT 2455600.5                  MPC
M 217.57793              (2000.0)            P               Q
n   1.17290320     Peri.  315.77696     +0.89227298     +0.42160643
a   0.8904877      Node    21.01596     -0.17253423     +0.64904408
e   0.5931139      Incl.   26.77284     -0.41722999     +0.63323756
P   0.84           H   24.3           G   0.15           U   8
Residuals in seconds of arc
110408 J75 (6.0+  2.3+)   110409 A99 (4.9+  1.3+)   110409 176  0.3+  0.1-
110408 J75 (5.1+  1.3+)   110409 J75  0.6-  0.0     110409 I89  0.1+  0.1-
110408 J75 (3.8+  0.6+)   110409 176  0.6-  0.3-    110409 176  0.0   0.1-
110408 J75  1.3+  0.6+    110409 A99 (4.9+  1.5+)   110409 176  0.1+  0.1-
110408 J75  0.9+  0.1+    110409 176  0.2-  0.3-    110409 176  0.2-  0.2+
110408 J75  0.6+  1.9+    110409 J75  0.0   0.0     110409 I89  0.1-  0.1-
110408 J75  0.6+  0.2+    110409 176  0.5+  0.0     110409 176  0.1+  0.2+
110408 J75  0.4-  0.2-    110409 176  0.9-  0.3-    110409 J95  0.2-  0.0
110409 J75  0.1+  0.1+    110409 J75  0.0   0.2-    110409 176  0.1+  0.1+
110409 J75  0.0   0.2+    110409 176  0.2+  0.1-    110409 198  0.1-  0.2-
110409 J75  0.5-  0.1-    110409 176  0.7-  0.2+    110409 198  0.2-  0.3-
110409 176  0.6+  0.1-    110409 176  0.1+  0.2-    110409 176  0.2+  0.1+
110409 176  0.2+  0.6-    110409 176  0.1+  0.4-    110409 I89  0.4+  0.2-
110409 176  0.2+  0.0     110409 176  0.5+  0.8-    110409 176  0.5+  0.5+
110409 176  0.3-  0.6+    110409 176  0.2-  0.1-    110409 176  0.1-  0.2+
110409 176  0.3-  0.4-    110409 176  0.5-  0.1+    110409 J95  0.4+  0.3+
110409 595  0.3-  0.3-    110409 176  0.7-  0.1+    110409 J95  0.2-  0.0
110409 J75  0.4-  0.2-    110409 176  0.1-  0.0     110409 176  0.2+  0.4+
110409 176  0.2+  0.0     110409 J95  0.1-  0.1-    110409 176  0.1-  0.1-
110409 J75  0.3+  0.1+    110409 176  0.2-  0.1-    110409 198  0.2+  0.2+
110409 595  0.2-  0.4-    110409 176  0.4-  0.3-    110409 198  0.0   0.2+
110409 J75  0.4-  0.1-    110409 J95  0.2-  0.1-    110409 176  0.3+  0.2+
110409 A99 (2.9+  1.0+)   110409 176  0.3-  0.0     110409 198  0.3+  0.4+
110409 A99 (4.5+  0.8+)   110409 176  0.2-  0.2-    110409 198  0.5+  0.1+
110409 J75  0.4+  0.4-    110409 J95  0.3-  0.0     110409 198  0.5+  0.2+
110409 J75  0.3+  0.2-    110409 176  0.4-  0.4-    110409 176  0.4+  0.4-
110409 176  0.7+  0.0     110409 176  0.6-  0.1-    110409 176  1.0+  0.2+

Ephemeris:
2011 GP59                a,e,i = 0.89, 0.59, 27                  q = 0.3623
Date    TT    R. A. (2000) Decl.     Delta      r     Elong.  Phase     V
2011 04 09.0  15 33.77   +08 00.9    0.0318   1.026   140.8    38.1    18.4
2011 04 09.1  15 33.43   +07 58.7    0.0306   1.025   140.9    38.0    18.3
2011 04 09.2  15 33.05   +07 56.4    0.0293   1.024   141.1    37.9    18.2
2011 04 09.3  15 32.64   +07 53.9    0.0280   1.023   141.3    37.7    18.1
2011 04 09.4  15 32.18   +07 51.1    0.0268   1.023   141.5    37.6    18.0
2011 04 09.5  15 31.68   +07 48.0    0.0255   1.022   141.7    37.4    17.9
2011 04 09.6  15 31.13   +07 44.6    0.0243   1.021   141.9    37.3    17.8
2011 04 09.7  15 30.52   +07 40.8    0.0230   1.020   142.1    37.1    17.7
2011 04 09.8  15 29.84   +07 36.5    0.0218   1.019   142.4    36.9    17.5
2011 04 09.9  15 29.08   +07 31.8    0.0205   1.018   142.6    36.7    17.4
2011 04 10.0  15 28.21   +07 26.4    0.0193   1.017   142.9    36.4    17.2
2011 04 10.1  15 27.22   +07 20.2    0.0180   1.016   143.3    36.1    17.1
2011 04 10.2  15 26.09   +07 13.1    0.0167   1.015   143.7    35.8    16.9
2011 04 10.3  15 24.76   +07 04.8    0.0155   1.014   144.1    35.4    16.7
2011 04 10.4  15 23.21   +06 55.0    0.0142   1.013   144.6    35.0    16.5
2011 04 10.5  15 21.36   +06 43.3    0.0130   1.012   145.1    34.4    16.3
2011 04 10.6  15 19.11   +06 29.0    0.0117   1.012   145.8    33.8    16.1
2011 04 10.7  15 16.33   +06 11.3    0.0105   1.011   146.6    33.0    15.8
2011 04 10.8  15 12.81   +05 48.7    0.00923  1.010   147.6    32.1    15.5
2011 04 10.9  15 08.19   +05 19.0    0.00799  1.009   149.0    30.8    15.2
2011 04 11.0  15 01.87   +04 38.0    0.00675  1.008   150.7    29.1    14.7
2011 04 11.1  14 52.76   +03 38.4    0.00552  1.007   153.3    26.6    14.2
2011 04 11.2  14 38.49   +02 04.2    0.00430  1.006   157.2    22.7    13.6
2011 04 11.3  14 13.31   -00 43.5    0.00312  1.005   164.2    15.8    12.6
2011 04 11.4  13 19.50   -06 35.8    0.00204  1.004   178.3     1.7    11.1
2011 04 11.5  10 57.03   -18 58.7    0.00132  1.003   144.2    35.8    11.4
2011 04 11.6  07 19.24   -23 12.8    0.00158  1.002    93.4    86.5    13.3
2011 04 11.7  05 38.86   -18 43.9    0.00253  1.001    69.6   110.3    15.5
2011 04 11.8  04 58.88   -15 51.6    0.00368  1.000    59.5   120.3    17.0
2011 04 11.9  04 38.72   -14 11.8    0.00487  0.999    54.3   125.4    18.0
2011 04 12.0  04 26.65   -13 08.2    0.00610  0.998    51.1   128.6    18.8
2011 04 12.1  04 18.72   -12 25.0    0.00733  0.997    49.0   130.7    19.4
2011 04 12.2  04 13.10   -11 53.7    0.00858  0.996    47.5   132.2    19.9
2011 04 12.3  04 08.92   -11 30.1    0.00982  0.996    46.3   133.3    20.3
2011 04 12.4  04 05.68   -11 11.6    0.0111   0.995    45.4   134.1    20.7
2011 04 12.5  04 03.11   -10 56.7    0.0123   0.994    44.7   134.8    21.0
2011 04 12.6  04 01.01   -10 44.6    0.0136   0.993    44.0   135.4    21.2
2011 04 12.7  03 59.26   -10 34.4    0.0148   0.992    43.5   135.9    21.5
2011 04 12.8  03 57.79   -10 25.8    0.0161   0.991    43.1   136.3    21.7
2011 04 12.9  03 56.54   -10 18.5    0.0173   0.990    42.7   136.7    21.9
2011 04 13.0  03 55.45   -10 12.0    0.0186   0.989    42.3   137.0    22.1
2011 04 13.1  03 54.50   -10 06.4    0.0198   0.988    42.0   137.2    22.3
2011 04 13.2  03 53.66   -10 01.5    0.0211   0.987    41.7   137.5    22.4
2011 04 13.3  03 52.91   -09 57.1    0.0224   0.986    41.4   137.7    22.6
2011 04 13.4  03 52.25   -09 53.1    0.0236   0.985    41.2   137.9    22.7
2011 04 13.5  03 51.65   -09 49.5    0.0249   0.984    41.0   138.1    22.8
2011 04 13.6  03 51.10   -09 46.3    0.0261   0.983    40.8   138.2    23.0
2011 04 13.7  03 50.61   -09 43.4    0.0274   0.982    40.6   138.4    23.1
2011 04 13.8  03 50.16   -09 40.7    0.0286   0.981    40.4   138.5    23.2
2011 04 13.9  03 49.74   -09 38.2    0.0299   0.980    40.2   138.7    23.3
2011 04 14.0  03 49.36   -09 35.9    0.0311   0.979    40.0   138.8    23.4
2011 04 14.1  03 49.01   -09 33.8    0.0324   0.978    39.9   138.9    23.5
2011 04 14.2  03 48.68   -09 31.8    0.0337   0.977    39.7   139.0    23.6
2011 04 14.3  03 48.37   -09 30.0    0.0349   0.976    39.6   139.1    23.7
2011 04 14.4  03 48.09   -09 28.3    0.0362   0.975    39.4   139.2    23.8
2011 04 14.5  03 47.82   -09 26.7    0.0374   0.974    39.3   139.3    23.9
2011 04 14.6  03 47.57   -09 25.2    0.0387   0.973    39.2   139.4    24.0
2011 04 14.7  03 47.34   -09 23.8    0.0400   0.972    39.1   139.5    24.0
2011 04 14.8  03 47.11   -09 22.4    0.0412   0.971    38.9   139.5    24.1
2011 04 14.9  03 46.90   -09 21.2    0.0425   0.970    38.8   139.6    24.2
2011 04 15.0  03 46.70   -09 20.0    0.0437   0.969    38.7   139.7    24.2
2011 04 15.1  03 46.51   -09 18.8    0.0450   0.968    38.6   139.8    24.3
2011 04 15.2  03 46.34   -09 17.7    0.0462   0.967    38.5   139.8    24.4
2011 04 15.3  03 46.16   -09 16.7    0.0475   0.966    38.4   139.9    24.4
2011 04 15.4  03 46.00   -09 15.7    0.0488   0.965    38.3   140.0    24.5
2011 04 15.5  03 45.85   -09 14.7    0.0500   0.964    38.2   140.0    24.6
2011 04 15.6  03 45.70   -09 13.8    0.0513   0.963    38.0   140.1    24.6
2011 04 15.7  03 45.55   -09 13.0    0.0525   0.962    37.9   140.1    24.7
2011 04 15.8  03 45.42   -09 12.1    0.0538   0.961    37.8   140.2    24.7
2011 04 15.9  03 45.28   -09 11.3    0.0551   0.960    37.8   140.2    24.8
2011 04 16.0  03 45.16   -09 10.5    0.0563   0.959    37.7   140.3    24.9

Timothy B. Spahr             (C) Copyright 2011 MPC           M.P.E.C. 2011-G60

Read MPEC 2011-G59 Read MPEC 2011-G61


MPEC number:

Enter an MPEC number in one of the following forms:

  • 1997-B01 (the full form)
  • J97B01 (the packed version of the full form)
  • B01 (the abbreviated form)

